Limon, CO

10:39 PM MST on January 20, 2017 (GMT -0700)
Limon

Weather History for KLIC - January, 2013

Change the Weather History Date:

Thursday, January 10, 2013

  Actual Average Record
Temperature  
Mean Temperature 33 °F -  
Max Temperature 47 °F - 63 °F (2004)
Min Temperature 19 °F - -15 °F (2011)
Degree Days  
Heating Degree Days 32    
Month to date heating degree days 434  
Cooling Degree Days 0    
Month to date cooling degree days 0  
Moisture  
Dew Point 23 °F    
Average Humidity 65    
Maximum Humidity 93    
Minimum Humidity 23    
Precipitation  
Precipitation 0.00 in - 0.08 in (2002)
Month to date precipitation T  
Year to date precipitation T  
Sea Level Pressure  
Sea Level Pressure 29.78 in    
Wind  
Wind Speed 12 mph (South)    
Max Wind Speed 22 mph    
Max Gust Speed 28 mph    
Visibility 10 miles    
Events      
T = Trace of Precipitation, MM = Missing Value Source: NWS Daily Summary

Daily Weather History Graph

Daily Weather History Graph

Search for Another Location

Airport or City:

Trip Planner

Search our weather history database for the weather conditions in past years. The results will help you decide how hot, cold, wet, or windy it might be!

Date:

Astronomy

Jan. 10, 2013 Rise Set
Actual Time 7:14 AM MST 4:50 PM MST
Civil Twilight 6:44 AM MST 5:20 PM MST
Nautical Twilight 6:11 AM MST 5:53 PM MST
Astronomical Twilight 5:38 AM MST 6:26 PM MST
Moon 5:56 AM MST (1/10) 4:01 PM MST (1/10)
Length of Visible Light 10h 36m
Length of Day
9h 36m
Waning Crescent, 2% of the Moon is Illuminated
Jan 10
Waning Crescent
Jan 11
New
Jan 18
First Quarter
Jan 26
Full
Feb 3
Last Quarter

Hourly Weather History & Observations

Time (MST) Temp. Windchill Dew Point Humidity Pressure Visibility Wind Dir Wind Speed Gust Speed Precip Events Conditions
12:55 AM 21.0 °F 10.6 °F 18.0 °F 88% 30.12 in 10.0 mi SSE 9.2 mph - N/A   Clear
1:55 AM 21.0 °F 10.6 °F 17.1 °F 85% 30.09 in 10.0 mi SSE 9.2 mph - N/A   Clear
2:55 AM 23.0 °F 13.9 °F 17.1 °F 78% 30.06 in 10.0 mi South 8.1 mph - N/A   Clear
3:23 AM 28.4 °F 16.2 °F 19.4 °F 69% 30.01 in 10.0 mi South 17.3 mph - N/A   Mostly Cloudy
3:55 AM 30.0 °F 18.7 °F 19.9 °F 66% 29.98 in 10.0 mi South 16.1 mph - N/A   Overcast
4:25 AM 30.2 °F 21.3 °F 19.4 °F 64% 29.98 in 10.0 mi South 10.4 mph - N/A   Overcast
4:55 AM 32.0 °F 21.2 °F 24.1 °F 73% 29.96 in 10.0 mi South 16.1 mph - N/A   Overcast
5:09 AM 33.8 °F 23.2 °F 24.8 °F 70% 29.94 in 10.0 mi South 17.3 mph - N/A   Overcast
5:55 AM 30.0 °F 20.0 °F 28.0 °F 92% 29.95 in 10.0 mi SE 12.7 mph - N/A   Mostly Cloudy
6:07 AM 30.2 °F 19.8 °F 28.4 °F 93% 29.91 in 10.0 mi SSE 13.8 mph - N/A   Scattered Clouds
6:46 AM 30.2 °F 18.9 °F 24.8 °F 80% 29.89 in 10.0 mi SSW 16.1 mph - N/A   Scattered Clouds
6:55 AM 32.0 °F 21.2 °F 26.1 °F 79% 29.91 in 10.0 mi South 16.1 mph - N/A   Mostly Cloudy
7:21 AM 33.8 °F 23.2 °F 28.4 °F 81% 29.89 in 10.0 mi South 17.3 mph - N/A   Overcast
7:40 AM 33.8 °F 24.3 °F 28.4 °F 81% 29.88 in 10.0 mi South 13.8 mph - N/A   Overcast
7:48 AM 33.8 °F 25.8 °F 30.2 °F 87% 29.88 in 10.0 mi South 10.4 mph - N/A   Overcast
7:55 AM 34.0 °F 25.0 °F 30.9 °F 89% 29.91 in 10.0 mi South 12.7 mph - N/A   Overcast
8:30 AM 35.6 °F 28.6 °F 33.8 °F 93% 29.87 in 10.0 mi SSE 9.2 mph - N/A   Overcast
8:55 AM 36.0 °F 29.0 °F 33.1 °F 89% 29.86 in 10.0 mi SE 9.2 mph - N/A   Overcast
9:37 AM 41.0 °F 34.3 °F 37.4 °F 87% 29.82 in 10.0 mi South 11.5 mph - N/A   Overcast
9:55 AM 42.1 °F 34.2 °F 37.0 °F 82% 29.81 in 10.0 mi South 16.1 mph - N/A   Mostly Cloudy
10:36 AM 42.8 °F 34.8 °F 37.4 °F 81% 29.78 in 10.0 mi South 17.3 mph 24.2 mph N/A   Scattered Clouds
11:55 AM 46.0 °F 39.9 °F 35.1 °F 66% 29.71 in 10.0 mi South 13.8 mph - N/A   Clear
12:55 PM 46.0 °F 39.6 °F 36.0 °F 68% 29.68 in 10.0 mi South 15.0 mph - N/A   Clear
1:55 PM 46.9 °F - 30.0 °F 52% 29.64 in 10.0 mi SSE 12.7 mph - N/A   Clear
2:55 PM 44.1 °F 39.0 °F 17.1 °F 34% 29.64 in 10.0 mi SE 9.2 mph - N/A   Clear
3:55 PM 42.1 °F 39.2 °F 14.0 °F 32% 29.61 in 10.0 mi ESE 4.6 mph - N/A   Clear
4:55 PM 39.0 °F 32.3 °F 17.1 °F 41% 29.60 in 10.0 mi South 10.4 mph - N/A   Clear
5:55 PM 34.0 °F 26.0 °F 18.0 °F 52% 29.61 in 10.0 mi SE 10.4 mph - N/A   Clear
6:55 PM 36.0 °F 29.0 °F 15.1 °F 43% 29.57 in 10.0 mi South 9.2 mph - N/A   Clear
7:55 PM 35.1 °F 28.6 °F 14.0 °F 42% 29.56 in 10.0 mi SE 8.1 mph - N/A   Clear
8:55 PM 35.1 °F - 12.0 °F 39% 29.52 in 10.0 mi Calm Calm - N/A   Clear
9:55 PM 39.0 °F 35.7 °F 9.0 °F 29% 29.46 in 10.0 mi South 4.6 mph - N/A   Clear
10:43 PM 44.6 °F 36.9 °F 8.6 °F 23% 29.50 in 10.0 mi SW 18.4 mph 25.3 mph N/A   Clear
10:55 PM 45.0 °F 36.9 °F 9.0 °F 23% 29.41 in 10.0 mi SW 20.7 mph 27.6 mph N/A   Clear
11:55 PM 42.1 °F 34.5 °F 10.9 °F 28% 29.41 in 10.0 mi SW 15.0 mph 20.7 mph N/A   Clear